Location: Unspecified
(0.0000°N, 0.0000°E)
Time: 15:25:45
(UTC+00:00)

Vanguard 3 - Pass Details

Date: 01 October 2023
Orbit: 507 x 3226 km, 33.3° (Epoch: 09 September)

Event Time Altitude Azimuth Distance (km) Brightness Sun altitude
Rises 13:24:37 0° 234° (SW) 6,690 12.1 66.1°
Reaches altitude 10° 13:28:42 10° 234° (SW) 5,886 12.0 65.1°
Maximum altitude 13:48:35 88° 323° (NW) 3,219 11.5 60.1°
Drops below altitude 10° 14:06:02 10° 53° (NE) 5,273 11.1 55.8°
Sets 14:09:28 0° 53° (NE) 5,998 11.3 54.9°
